Showing default

CYGFM05, 41884

Orbit data source: Space-Track

CYGFM05, 41884 is an American payload satellite in LEO that was launched on Thu, 15 Dec 2016 UTC via a PEGASUS XL launch vehicle from the Pegasus Launch, Eastern Range Air Space (ERAS). Payloads include a variety of satellites, spacecraft, and rockets equipped with specific instruments for various scientific and technological missions. These include communications satellites like Starlink; space stations such as the ISS; scientific satellites like the Hubble; Earth observation satellites from companies like Planet Labs, Umbra, and HawkEye 360; GPS; miniature CubeSats for education and research; and military/defense satellites.

Loading next visibility...
CYGFM05 details
Identifier
41884, 2016-078A
Orbit
LEO
Last TLE update6 hours ago
Origin
Flag of USLARCN/SWRIB (US)
ManufacturerSST-US
MissionExtended mission Civil Science
Bus & MotorCYGNSS, Unknown motor
Mass29 kg wet, 29 kg dry
Launch date (UTC)
2016-12-15 (8 years ago)
Launch vehicle
PEGASUS XL
Launch site
Pegasus Launch, Eastern Range Air Space (ERAS)
Object type
Payload
Rocket body
Debris
Shape & HBRHalf Hex Cyl + 2 Pan, 1.7 m
Radar Cross Section0.450 m², Medium (>0.1 m² and < 1m²)

Expand to show TLE details & history

TLE from 6 hours ago
0 CYGFM05
1 41884U 16078A   24361.54356132  .00021930  00000-0  64370-3 0  9990
2 41884  34.9605 157.3406 0009250 153.9837 206.1347 15.34193570445567
Epoch: 2024-12-26T13:02Z
Definitive object data (Epoch: 2024-12-26T13:02:43.698Z)
Latitude0.00002°
Longitude-133.86289°
Altitude467.896 km
Speed7.631 km/s
True Right ascension10h 29m 21s
True Declination0° 00' 00"
Sunlit
Object was in full shadow at TLE epoch
Visualization TLE readout
Latitude-17.27325°
Longitude-161.74225°
Altitude472.252 km
Speed7.628 km/s
Apparent Right ascension07h 44m 13s
Apparent Declination-28° 55' 53"
Sunlit
Object is in full shadow
Visualization observer readout
Local Sidereal Time18:32:03
Azimuth301.015° NW
Elevation-71.565°
Doppler factor1
Orbital elements
Apogee altitude472.921 km
Perigee altitude460.258 km
Semi-major axis6,844.726 km
Eccentricity0.000925
Inclination34.9605°
RAAN157.3406°
Arg. of periapsis153.9837°
True anomaly206.08806°
Mean anomaly206.1347°
Eccentric anomaly206.11137°
Mean motion3.83274 °/min
BSTAR0.0006437
Orbital period93.93 mins
Loading maneuver chart data...
Loading historical data...
Loading historical data...
Loading historical data...
Loading historical data...
Loading historical data...
Loading historical data...
Loading historical data...

CYGFM05 Visibility forecast

Observer location: undefined°, undefined

Span
Click to sort rows by Start time (UTC) header in descending order
Start Az.
Max El. time (UTC)
Max El. Az.
Max El.
End time (UTC)
End Az.
5 mins2024-12-27 15:55:26.958Z225.526° WSW2024-12-27 15:57:26.958Z165.764° S29.445°2024-12-27 16:00:26.958Z108.463° ESE
4 mins2024-12-27 17:34:26.958Z232.504° WSW2024-12-27 17:35:26.958Z206.675° SW26.488°2024-12-27 17:38:26.958Z132.169° SE
|